{"data":{"norad_id":58447,"intl_designator":"2023-183L","name":"STARLINK-30976","alt_names":[],"object_type":"PAYLOAD","status":"ACTIVE","operator":null,"country":"US","launch_date":"2023-11-28","launch_site_code":"AFETR","launch_vehicle":null,"mission":null,"orbit_class":"UNKNOWN","rcs_meters":null,"size_class":null,"mass_kg":null,"dimensions":null,"purposes":["comms"],"wikipedia_slug":null,"has_3d_model":false,"image_url":null,"decayed_at":null,"tle_current":{"epoch":"2026-09-19T16:25:13.358496Z","epoch_age_seconds":217253,"freshness":"STALE","line1":"1 58447U 23183L   26262.68418239  .00000826  00000+0  39538-4 0  9991","line2":"2 58447  43.0044  26.0334 0001731 262.3264  97.7391 15.27576594156403","mean_motion":15.27576594,"eccentricity":0.0001731,"inclination_deg":43.0044,"raan_deg":26.0334,"arg_perigee_deg":262.3264,"mean_anomaly_deg":97.7391,"bstar":3.9538e-5,"rev_number":15640,"period_min":94.266958897905,"perigee_km":481.87162176927,"apogee_km":484.24696792654,"semimajor_km":6861.1962948479,"source":"CELESTRAK","updated_at":"2026-09-21T09:00:33.877277Z"}}}